Regional Weather Roundup
Issued by NWS

Home | Current Version | Previous Version | Text Only | Print | Product List | Glossary Off
Versions: 1 2 3 4 5 6 7 8 9 10 11 12 13 14 15 16 17 18 19 20 21 22 23 24 25 26 27 28 29 30 31 32 33 34 35 36 37 38 39 40 41 42 43 44 45 46 47 48 49 50

000
ASUS43 KDTX 281801
RWRMI
MICHIGAN HOURLY REGIONAL WEATHER ROUNDUP
NATIONAL WEATHER SERVICE DETROIT/PONTIAC MI
100 PM EST FRI NOV 28 2014

NOTE: "FAIR" INDICATES FEW OR NO CLOUDS BELOW 12,000 FEET WITH NO
SIGNIFICANT WEATHER AND/OR OBSTRUCTION TO VISIBILITY.

MIZ047>049-052>055-059>063-066>070-074>076-081>083-281900-
SOUTHEAST LOWER MICHIGAN

CITY           SKY/WX    TMP DP  RH WIND       PRES   REMARKS
ADRIAN         PTSUNNY   26  16  65 SW12      30.25F WCI  16
6HR MIN TEMP:  14; 6HR MAX TEMP:  26;

ALMA           FLURRIES  25  18  74 S8        30.20F WCI  16
ANN ARBOR      CLOUDY    25  14  63 S7        30.24F WCI  17
BAD AXE        PTSUNNY   23  13  64 SW6       30.22F WCI  16
6HR MIN TEMP:  19; 6HR MAX TEMP:  23;

DETROIT CITY   PTSUNNY   27  11  51 SW9       30.26F WCI  18
6HR MIN TEMP:  20; 6HR MAX TEMP:  28;

DETROIT        CLOUDY    28  15  58 SW14      30.27F WCI  17
6HR MIN TEMP:  18; 6HR MAX TEMP:  28;

FLINT          CLOUDY    26  13  57 S8        30.23F WCI  18
6HR MIN TEMP:  19; 6HR MAX TEMP:  26;

GROSSE ILE     PTSUNNY   27  18  69 S14       30.26F WCI  15
HILLSDALE      PTSUNNY   26  16  66 S7        30.20F WCI  18
6HR MIN TEMP:  18; 6HR MAX TEMP:  26;

HOWELL         PTSUNNY   26  15  62 SW9       30.21F WCI  17

CITY           SKY/WX    TMP DP  RH WIND       PRES   REMARKS
JACKSON        CLOUDY    25  15  66 SW10      30.21F WCI  15
6HR MIN TEMP:  16; 6HR MAX TEMP:  26; 6HR PCP: TRACE;

LAMBERTVILLE   CLOUDY    30  18  59 SW6       30.26F WCI  24
LANSING        FLURRIES  27  17  66 S12       30.21F WCI  17
6HR MIN TEMP:  18; 6HR MAX TEMP:  27; 6HR PCP: TRACE;

LAPEER         MOCLDY    25  12  59 SW7       30.23S WCI  17
MASON          CLOUDY    27  18  69 S7        30.21F WCI  19
MONROE         MOSUNNY   27  18  69 SW6       30.25F WCI  20
PONTIAC        PTSUNNY   24  11  57 SW10      30.21F WCI  14
6HR MIN TEMP:  16; 6HR MAX TEMP:  25;

PORT HURON     PTSUNNY   25  12  58 W5        30.24F WCI  19
TRI CITIES     CLOUDY    25  12  58 S13       30.22F WCI  14
6HR MIN TEMP:  19; 6HR MAX TEMP:  25;

TROY           PTSUNNY   28  11  49 S7        30.26F WCI  21
SAGINAW HB     CLOUDY    27  14  59 SW12      30.22F WCI  16
$$
MIZ043>046-050>051-056>058-064>065-071>073-077>080-281900-
SOUTHWEST LOWER MICHIGAN

CITY           SKY/WX    TMP DP  RH WIND       PRES   REMARKS
BATTLE CREEK   LGT SNOW  26  15  63 SW10      30.20F WCI  16
6HR MIN TEMP:  22; 6HR MAX TEMP:  26; 6HR PCP: TRACE;

BENTON HARBOR  CLOUDY    24  18  77 S12       30.18F WCI  13
6HR MIN TEMP:  21; 6HR MAX TEMP:  24; 6HR PCP: TRACE;

BIG RAPIDS     LGT SNOW  23  20  88 SE8       30.14F WCI  14
6HR MIN TEMP:  18; 6HR MAX TEMP:  23;

COLDWATER      LGT SNOW  26  18  70 S8        30.21F WCI  18
6HR MIN TEMP:  22; 6HR MAX TEMP:  27;

FREMONT        CLOUDY    24  19  82 S10G17    30.16F HAZE    WCI  13
HOLLAND        CLOUDY    25  16  68 S12       30.19F WCI  14
6HR MIN TEMP:  22; 6HR MAX TEMP:  26; 6HR PCP: TRACE;

GRAND RAPIDS   LGT SNOW  25  15  66 S14       30.19F WCI  13
6HR MIN TEMP:  20; 6HR MAX TEMP:  25; 6HR PCP: TRACE;

IONIA          LGT SNOW  27  21  79 S12       30.18F WCI  16
KALAMAZOO      LGT SNOW  24  17  74 S13       30.20F WCI  12
6HR MIN TEMP:  22; 6HR MAX TEMP:  25; 6HR PCP: TRACE;

LUDINGTON      LGT SNOW  24  21  87 SE7       30.14F WCI  16
MARSHALL       CLOUDY    24  15  69 S7G16     30.20F HAZE    WCI  16
MOUNT PLEASANT FLURRIES  24  15  67 S7        30.18F WCI  16
6HR MIN TEMP:  19; 6HR MAX TEMP:  25;

MUSKEGON       LGT SNOW  25  19  78 S14       30.17F VSB 1   WCI  13
6HR MIN TEMP:  20; 6HR MAX TEMP:  25; 6HR PCP:  0.07;

SOUTH HAVEN    CLOUDY    25  18  76 S9        30.19F WCI  15
$$
MIZ016>042-281900-
NORTHERN LOWER MICHIGAN

CITY           SKY/WX    TMP DP  RH WIND       PRES   REMARKS
ALPENA         CLOUDY    21  12  68 SW7       30.18F WCI  12
6HR MIN TEMP:  16; 6HR MAX TEMP:  21;

BEAVER ISLAND  CLOUDY    26  16  65 SW6       30.12F WCI  20
6HR MIN TEMP:  20; 6HR MAX TEMP:  26;

BELLAIRE       CLOUDY    23  17  75 S6        30.16F WCI  16
CADILLAC       LGT SNOW  20  16  83 S8        30.11F WCI  10
CHARLEVOIX     LGT SNOW  22  18  81 SE7       30.16F WCI  14
6HR MIN TEMP:  20; 6HR MAX TEMP:  23;

FRANKFORT      LGT SNOW  23  20  89 S9        30.13F WCI  13
GAYLORD        CLOUDY    18  12  77 SW7       30.11F WCI   9
6HR MIN TEMP:  13; 6HR MAX TEMP:  18; 6HR PCP: TRACE;

GRAYLING       CLOUDY    21  15  79 S5        30.14F WCI  14
HARBOR SPRINGS CLOUDY    22  15  74 S6        30.15F WCI  15
HOUGHTON LAKE  CLOUDY    20  14  77 S8        30.15F WCI  10
6HR MIN TEMP:  13; 6HR MAX TEMP:  20;

MANISTEE       CLOUDY    23  18  80 SE9       30.14F WCI  13
OSCODA         CLOUDY    23  13  64 SW7       30.20F WCI  15
PELLSTON       LGT SNOW  22  17  81 S6        30.15F WCI  14
6HR MIN TEMP:  16; 6HR MAX TEMP:  22; 6HR PCP:  0.02;

ROGERS CITY    CLOUDY    22  16  78 SW6       30.18F WCI  14
TRAVERSE CITY  CLOUDY    25  16  68 S8        30.14F WCI  16
6HR MIN TEMP:  18; 6HR MAX TEMP:  25;

$$
MIZ007>008-015-281900-
EASTERN UPPER MICHIGAN

CITY           SKY/WX    TMP DP  RH WIND       PRES   REMARKS
KINROSS        PTSUNNY   18  14  86 CALM      30.15F
6HR MIN TEMP:   3; 6HR MAX TEMP:  18;

MACKINAC ISLAN LGT SNOW  22  19  86 CALM      30.14F
6HR MIN TEMP:  17; 6HR MAX TEMP:  22;

NEWBERRY       CLOUDY    15   8  74 N5        30.12F WCI   8
6HR MIN TEMP:  10; 6HR MAX TEMP:  16;

S. S. MARIE    CLOUDY    13   7  77 SE5       30.13F WCI   5
6HR MIN TEMP:   2; 6HR MAX TEMP:  13;

MUNISING         N/A     18   6  59 CALM      30.12F
6HR MIN TEMP:  11; 6HR MAX TEMP:  18;

$$
MIZ004>006-011>014-085-281900-
CENTRAL UPPER MICHIGAN

CITY           SKY/WX    TMP DP  RH WIND       PRES   REMARKS
MANISTIQUE     CLOUDY    17  10  72 CALM      30.12F
6HR MIN TEMP:   9; 6HR MAX TEMP:  17;

ESCANABA       CLOUDY    18   7  62 SW7       30.11F WCI   8
6HR MIN TEMP:   7; 6HR MAX TEMP:  18;

MENOMINEE      CLOUDY    18  10  73 CALM      30.10F
6HR MIN TEMP:   9; 6HR MAX TEMP:  18;

SAWYER-GWINN   CLOUDY    12   5  73 S6        30.05F WCI   3
$$
MIZ001>003-009>011-084-281900-
WESTERN UPPER MICHIGAN

CITY           SKY/WX    TMP DP  RH WIND       PRES   REMARKS
IRON MOUNTAIN  LGT SNOW  12   7  80 SE6       30.05F VSB 1   WCI   3
6HR MIN TEMP:   2; 6HR MAX TEMP:  12; 6HR PCP: TRACE;

HOUGHTON       CLOUDY    12   3  67 S3        30.02F
6HR MIN TEMP:   7; 6HR MAX TEMP:  12;

COPPER HARBOR    N/A     17   6  62 SW12      30.05F WCI   4
6HR MIN TEMP:  11; 6HR MAX TEMP:  17;

IRONWOOD       CLOUDY    12  10  92 SE5       29.95F WCI   4
6HR MIN TEMP:   7; 6HR MAX TEMP:  12;

$$

ABBREVIATIONS USED IN REMARKS
   TC - TEMPERATURE IN CELSIUS
  WCI - WIND CHILL INDEX
   HX - HEAT INDEX
  VSB - VISIBILITY




USA.gov is the U.S. government's official web portal to all federal, state and local government web resources and services.